Location: Brachbach
(49.1847°N, 9.7240°E)
Time: 06:29:47
(UTC+00:00)

PCSat - Pass Details

Date: 17 March 2026
Orbit: 780 x 790 km, 67.1° (Epoch: 13 April)

Event Time Altitude Azimuth Distance (km) Brightness Sun altitude
Exits shadow 22:55:20 15° 18° (NNE) 2,059 12.2 -41.3°
Drops below altitude 10° 22:56:17 10° 24° (NNE) 2,364 12.5 -41.3°
Sets 22:58:57 0° 34° (NE) 3,297 13.3 -41.4°
